Location: Plzen
(49.7500°N, 13.3670°E)
Time: 04:09:44
(UTC+02:00)

ISS - Pass Details

Date: 20 May 2021
Orbit: 417 x 422 km, 51.6° (Epoch: 13 June)

Event Time Altitude Azimuth Distance (km) Brightness Sun altitude
Rises 22:54:55 0° 274° (W) 2,365 0.6 -14.5°
Reaches altitude 10° 22:57:02 10° 278° (W) 1,502 -0.4 -14.7°
Maximum altitude 23:00:22 60° 359° (N) 486 -3.2 -15.0°
Drops below altitude 10° 23:03:43 10° 81° (E) 1,505 -1.1 -15.2°
Enters shadow 23:04:12 - 82° (E) 1,694 -0.9 -15.3°
